WMT411 LIBD-LATI

Flight info

Callsign WMT411
Flight time 0h 28m
Altitude 19000
Route DOLON L612 KAPPO/N0353F180 DCT GOKEL/N0349F170 DCT DITAN
Aircraft A321/M-SDE1E2E3FGIJ1J4RWXY/LB1

Departure

Time 2026-04-29 07:22
Airport Bari Karol Wojtyła International Airport (LIBD)

Arrival

Time 2026-04-29 07:50
Airport Tirana International Airport Mother Teresa (LATI)
Time Latitude Longitude Altitude Speed Heading
2026-04-29 06:55 41.13503 16.76234 146 ft 0 kts 159°
2026-04-29 07:11 41.13523 16.76223 145 ft 4 kts 164°
2026-04-29 07:11 41.13549 16.76219 144 ft 4 kts 191°
2026-04-29 07:12 41.13571 16.76232 143 ft 4 kts 236°
2026-04-29 07:12 41.13577 16.76246 143 ft 1 kts 247°
2026-04-29 07:12 41.13578 16.76247 143 ft 0 kts 247°
2026-04-29 07:14 41.13577 16.76245 143 ft 2 kts 248°
2026-04-29 07:14 41.13569 16.76220 144 ft 3 kts 248°
2026-04-29 07:14 41.13561 16.76189 144 ft 4 kts 249°
2026-04-29 07:14 41.13557 16.76149 145 ft 5 kts 273°
2026-04-29 07:15 41.13577 16.76096 145 ft 9 kts 313°
2026-04-29 07:15 41.13626 16.76023 144 ft 12 kts 288°
2026-04-29 07:15 41.13623 16.75916 149 ft 11 kts 255°
2026-04-29 07:15 41.13598 16.75826 152 ft 11 kts 249°
2026-04-29 07:16 41.13571 16.75724 154 ft 13 kts 251°
2026-04-29 07:16 41.13537 16.75592 156 ft 17 kts 249°
2026-04-29 07:16 41.13488 16.75427 159 ft 22 kts 249°
2026-04-29 07:16 41.13429 16.75230 162 ft 22 kts 247°
2026-04-29 07:17 41.13372 16.75048 168 ft 20 kts 248°
2026-04-29 07:17 41.13320 16.74881 175 ft 18 kts 248°
2026-04-29 07:17 41.13282 16.74734 180 ft 16 kts 252°
2026-04-29 07:17 41.13247 16.74591 181 ft 16 kts 251°
2026-04-29 07:18 41.13211 16.74451 187 ft 15 kts 251°
2026-04-29 07:18 41.13169 16.74323 192 ft 15 kts 245°
2026-04-29 07:18 41.13182 16.74196 186 ft 13 kts 300°
2026-04-29 07:18 41.13189 16.74181 190 ft 0 kts 302°
2026-04-29 07:20 41.13190 16.74181 190 ft 0 kts 302°
2026-04-29 07:20 41.13200 16.74161 190 ft 5 kts 305°
2026-04-29 07:21 41.13239 16.74116 193 ft 10 kts 334°
2026-04-29 07:21 41.13304 16.74142 193 ft 11 kts 55°
2026-04-29 07:21 41.13343 16.74268 186 ft 32 kts 69°
2026-04-29 07:21 41.13527 16.74912 165 ft 115 kts 69°
2026-04-29 07:22 41.13886 16.76176 165 ft 173 kts 69°
2026-04-29 07:22 41.14318 16.77648 888 ft 169 kts 69°
2026-04-29 07:22 41.14752 16.79093 1660 ft 172 kts 69°
2026-04-29 07:22 41.15220 16.80659 2113 ft 193 kts 69°
2026-04-29 07:23 41.15743 16.82412 2459 ft 216 kts 69°
2026-04-29 07:23 41.16326 16.84378 2716 ft 242 kts 70°
2026-04-29 07:23 41.16967 16.86556 3187 ft 262 kts 70°
2026-04-29 07:23 41.17640 16.88838 3967 ft 268 kts 70°
2026-04-29 07:24 41.18324 16.91164 4835 ft 272 kts 70°
2026-04-29 07:24 41.19017 16.93522 5676 ft 276 kts 70°
2026-04-29 07:24 41.19713 16.95918 6536 ft 280 kts 70°
2026-04-29 07:24 41.20387 16.98357 7329 ft 284 kts 75°
2026-04-29 07:25 41.20679 17.00956 8113 ft 287 kts 90°
2026-04-29 07:25 41.20448 17.03603 8915 ft 291 kts 103°
2026-04-29 07:25 41.20000 17.06240 9735 ft 295 kts 103°
2026-04-29 07:25 41.19551 17.08920 10483 ft 299 kts 102°
2026-04-29 07:26 41.19099 17.11638 11231 ft 303 kts 102°
2026-04-29 07:26 41.18566 17.14365 11955 ft 308 kts 110°
2026-04-29 07:26 41.17600 17.16929 12573 ft 318 kts 124°
2026-04-29 07:26 41.16155 17.19279 12785 ft 340 kts 133°
2026-04-29 07:27 41.14524 17.21673 13135 ft 356 kts 133°
2026-04-29 07:27 41.12845 17.24140 13762 ft 363 kts 133°
2026-04-29 07:27 41.11142 17.26645 14389 ft 368 kts 133°
2026-04-29 07:27 41.09479 17.29245 15012 ft 373 kts 124°
2026-04-29 07:28 41.08368 17.32354 15623 ft 377 kts 105°
2026-04-29 07:28 41.07987 17.35798 16279 ft 380 kts 94°
2026-04-29 07:28 41.07771 17.39309 16921 ft 384 kts 94°
2026-04-29 07:28 41.07563 17.42868 17405 ft 394 kts 94°
2026-04-29 07:29 41.07352 17.46524 17533 ft 412 kts 94°
2026-04-29 07:29 41.07127 17.50396 17668 ft 429 kts 94°
2026-04-29 07:29 41.06887 17.54407 17802 ft 445 kts 94°
2026-04-29 07:29 41.06629 17.58559 18041 ft 456 kts 94°
2026-04-29 07:30 41.06360 17.62766 18479 ft 461 kts 94°
2026-04-29 07:30 41.06086 17.67016 18878 ft 464 kts 94°
2026-04-29 07:30 41.05812 17.71283 19025 ft 465 kts 94°
2026-04-29 07:31 41.05266 17.79824 19062 ft 465 kts 94°
2026-04-29 07:31 41.04990 17.84093 19062 ft 465 kts 94°
2026-04-29 07:31 41.04709 17.88362 19068 ft 465 kts 94°
2026-04-29 07:31 41.04427 17.92623 19068 ft 465 kts 94°
2026-04-29 07:32 41.04145 17.96890 19068 ft 465 kts 94°
2026-04-29 07:32 41.03862 18.01152 19068 ft 465 kts 94°
2026-04-29 07:32 41.03580 18.05419 19070 ft 465 kts 94°
2026-04-29 07:32 41.03297 18.09682 19070 ft 465 kts 94°
2026-04-29 07:33 41.03104 18.12562 19069 ft 465 kts 94°
2026-04-29 07:33 41.02814 18.16826 19067 ft 465 kts 95°
2026-04-29 07:33 41.02524 18.21088 19066 ft 465 kts 94°
2026-04-29 07:33 41.02235 18.25354 19064 ft 465 kts 94°
2026-04-29 07:34 41.01945 18.29611 19067 ft 465 kts 95°
2026-04-29 07:34 41.01653 18.33876 19066 ft 465 kts 95°
2026-04-29 07:34 41.01358 18.38133 19065 ft 465 kts 95°
2026-04-29 07:34 41.01061 18.42394 19066 ft 465 kts 95°
2026-04-29 07:35 41.00767 18.46602 19072 ft 465 kts 95°
2026-04-29 07:35 41.00466 18.50857 19073 ft 465 kts 95°
2026-04-29 07:35 41.00162 18.55117 19073 ft 465 kts 95°
2026-04-29 07:35 40.99856 18.59378 19076 ft 465 kts 95°
2026-04-29 07:36 40.99549 18.63638 19075 ft 465 kts 95°
2026-04-29 07:36 40.99241 18.67896 19072 ft 465 kts 95°
2026-04-29 07:36 40.98933 18.72134 19026 ft 457 kts 95°
2026-04-29 07:36 40.98632 18.76240 18796 ft 439 kts 95°
2026-04-29 07:37 40.98342 18.80198 18566 ft 425 kts 95°
2026-04-29 07:37 40.98061 18.84037 18330 ft 413 kts 95°
2026-04-29 07:37 40.97789 18.87770 18098 ft 401 kts 95°
2026-04-29 07:37 40.97522 18.91378 17948 ft 387 kts 95°
2026-04-29 07:38 40.97258 18.94887 17518 ft 381 kts 95°
2026-04-29 07:38 40.96999 18.98358 17026 ft 377 kts 95°
2026-04-29 07:38 40.96743 19.01800 16525 ft 374 kts 95°
2026-04-29 07:38 40.96485 19.05215 16030 ft 371 kts 95°
2026-04-29 07:39 40.96229 19.08598 15536 ft 368 kts 95°
2026-04-29 07:39 40.95971 19.11957 15051 ft 366 kts 95°
2026-04-29 07:39 40.95714 19.15289 14575 ft 363 kts 95°
2026-04-29 07:39 40.95458 19.18597 14101 ft 360 kts 95°
2026-04-29 07:40 40.95205 19.21882 13630 ft 357 kts 95°
2026-04-29 07:40 40.94966 19.25137 13110 ft 354 kts 92°
2026-04-29 07:40 40.95127 19.28341 12633 ft 348 kts 76°
2026-04-29 07:40 40.95931 19.31313 12210 ft 340 kts 60°
2026-04-29 07:41 40.97265 19.33847 11817 ft 333 kts 45°
2026-04-29 07:41 40.98903 19.35975 11413 ft 328 kts 42°
2026-04-29 07:41 41.00532 19.38066 11017 ft 324 kts 43°
2026-04-29 07:41 41.02138 19.40139 10624 ft 321 kts 43°
2026-04-29 07:42 41.03703 19.42166 10248 ft 318 kts 43°
2026-04-29 07:42 41.05276 19.44202 10102 ft 306 kts 43°
2026-04-29 07:42 41.06753 19.46120 9869 ft 298 kts 43°
2026-04-29 07:42 41.08252 19.48067 9441 ft 298 kts 44°
2026-04-29 07:43 41.09723 19.49976 9048 ft 297 kts 44°
2026-04-29 07:43 41.11170 19.51859 8724 ft 293 kts 44°
2026-04-29 07:43 41.12630 19.53763 8225 ft 296 kts 44°
2026-04-29 07:43 41.14091 19.55665 7791 ft 288 kts 44°
2026-04-29 07:44 41.15477 19.57467 7433 ft 271 kts 45°
2026-04-29 07:44 41.16623 19.59338 7096 ft 254 kts 61°
2026-04-29 07:44 41.17289 19.61449 6758 ft 247 kts 77°
2026-04-29 07:44 41.17533 19.63699 6400 ft 247 kts 86°
2026-04-29 07:45 41.17701 19.65984 6027 ft 250 kts 85°
2026-04-29 07:45 41.17873 19.68284 5659 ft 252 kts 85°
2026-04-29 07:45 41.18046 19.70587 5338 ft 249 kts 86°
2026-04-29 07:45 41.18389 19.72823 4938 ft 248 kts 64°
2026-04-29 07:46 41.19565 19.74425 4579 ft 245 kts 26°
2026-04-29 07:46 41.21212 19.74772 4218 ft 241 kts 355°
2026-04-29 07:46 41.22867 19.74576 3872 ft 238 kts 354°
2026-04-29 07:46 41.24508 19.74350 3531 ft 236 kts 353°
2026-04-29 07:47 41.26132 19.74118 3187 ft 232 kts 353°
2026-04-29 07:47 41.27694 19.73900 2901 ft 220 kts 354°
2026-04-29 07:47 41.29183 19.73698 2578 ft 209 kts 354°
2026-04-29 07:47 41.30603 19.73507 2293 ft 201 kts 353°
2026-04-29 07:48 41.31970 19.73320 2027 ft 193 kts 354°
2026-04-29 07:48 41.33259 19.73148 1778 ft 176 kts 354°
2026-04-29 07:48 41.34406 19.72993 1487 ft 156 kts 354°
2026-04-29 07:48 41.35455 19.72852 1250 ft 148 kts 354°
2026-04-29 07:49 41.36471 19.72715 1029 ft 146 kts 354°
2026-04-29 07:49 41.37469 19.72582 809 ft 143 kts 354°
2026-04-29 07:49 41.38450 19.72450 631 ft 141 kts 355°
2026-04-29 07:49 41.39426 19.72316 384 ft 140 kts 355°
2026-04-29 07:50 41.40397 19.72192 158 ft 140 kts 357°
2026-04-29 07:50 41.41247 19.72089 126 ft 103 kts 354°
2026-04-29 07:50 41.41855 19.72023 122 ft 74 kts 356°
2026-04-29 07:50 41.42208 19.71964 117 ft 28 kts 347°
2026-04-29 07:51 41.42280 19.71937 117 ft 5 kts 326°
2026-04-29 07:51 41.42292 19.71905 120 ft 2 kts 276°
2026-04-29 07:51 41.42290 19.71874 120 ft 5 kts 263°
2026-04-29 07:51 41.42283 19.71819 120 ft 7 kts 259°
2026-04-29 07:52 41.42276 19.71746 117 ft 9 kts 264°
2026-04-29 07:52 41.42268 19.71655 119 ft 11 kts 263°
2026-04-29 07:52 41.42263 19.71609 121 ft 1 kts 262°
2026-04-29 07:52 41.42261 19.71589 118 ft 3 kts 262°
2026-04-29 07:53 41.42268 19.71552 118 ft 5 kts 303°
2026-04-29 07:53 41.42306 19.71531 117 ft 7 kts 351°
2026-04-29 07:53 41.42365 19.71522 118 ft 8 kts 356°
2026-04-29 07:53 41.42416 19.71514 117 ft 5 kts 333°
2026-04-29 07:54 41.42424 19.71487 119 ft 1 kts 260°
2026-04-29 07:54 41.42419 19.71475 118 ft 5 kts 246°
2026-04-29 07:54 41.42417 19.71455 117 ft 0 kts 265°